Back to catalog

SL-12 DEB

LostHEO
NORAD 35085·DEBRIS·🇷🇺 Russia

Launched Apr 4, 1991 from Baikonur Cosmodrome

Loading…

Next Passes (next 24 hours)

TLE

StaleSource: Space-Track

Epoch: Nov 17, 2009, 07:00 UTC

1 35085U 91025AF  09321.29187490 -.00000052  00000-0  10000-3 0  9995
2 35085  65.7136  75.8612 4970492   5.6303 311.8435  4.32258261  7366

Track SL-12 DEB in real time with AllMySat

Download on the App Store